Time,TemperatureF,DewpointF,PressureIn,WindDirection,WindDirectionDegrees,WindSpeedMPH,WindSpeedGustMPH,Humidity,HourlyPrecipIn,Conditions,Clouds,dailyrainin,SoftwareType,DateUTC
2013-03-05 00:00:00,19.4,13.9,29.92,North,0,1.5,1.5,79,0.00,CLR,,0.00,WeatherDisplay:10.37,2013-03-05 05:00:00,
2013-03-05 00:01:00,19.4,13.9,29.92,North,0,0.6,1.1,79,0.00,CLR,,0.00,WeatherDisplay:10.37,2013-03-05 05:01:00,
2013-03-05 00:06:00,19.6,14.1,29.92,North,0,0.0,0.0,79,0.00,CLR,,0.00,WeatherDisplay:10.37,2013-03-05 05:06:00,
2013-03-05 00:11:00,19.8,14.6,29.92,North,0,0.9,1.1,80,0.00,CLR,,0.00,WeatherDisplay:10.37,2013-03-05 05:11:00,
2013-03-05 00:13:00,19.8,14.6,29.92,North,0,0.6,1.1,80,0.00,CLR,,0.00,WeatherDisplay:10.37,2013-03-05 05:13:00,
2013-03-05 00:18:00,19.6,14.4,29.92,NNW,338,0.3,0.3,80,0.00,CLR,,0.00,WeatherDisplay:10.37,2013-03-05 05:18:00,
2013-03-05 00:24:00,19.8,14.6,29.92,North,0,0.0,0.0,80,0.00,CLR,,0.00,WeatherDisplay:10.37,2013-03-05 05:24:00,
2013-03-05 00:29:00,19.8,14.6,29.92,North,0,0.0,0.0,80,0.00,CLR,,0.00,WeatherDisplay:10.37,2013-03-05 05:29:00,
2013-03-05 00:34:00,19.4,14.2,29.92,North,0,0.0,0.0,80,0.00,CLR,,0.00,WeatherDisplay:10.37,2013-03-05 05:34:00,
2013-03-05 00:39:00,19.0,13.9,29.92,North,0,0.3,0.3,80,0.00,CLR,,0.00,WeatherDisplay:10.37,2013-03-05 05:39:00,
2013-03-05 00:44:00,18.3,13.2,29.92,North,0,0.6,1.1,80,0.00,CLR,,0.00,WeatherDisplay:10.37,2013-03-05 05:44:00,
2013-03-05 00:49:00,17.8,12.4,29.92,NE,45,0.6,1.1,79,0.00,CLR,,0.00,WeatherDisplay:10.37,2013-03-05 05:49:00,
2013-03-05 00:54:00,17.2,11.8,29.92,NE,45,0.3,0.3,79,0.00,CLR,,0.00,WeatherDisplay:10.37,2013-03-05 05:54:00,
2013-03-05 00:59:00,17.1,11.7,29.92,NE,45,0.0,0.0,79,0.00,CLR,,0.00,WeatherDisplay:10.37,2013-03-05 05:59:00,
2013-03-05 01:04:00,16.9,11.5,29.92,NE,45,0.0,0.0,79,0.00,CLR,,0.00,WeatherDisplay:10.37,2013-03-05 06:04:00,
2013-03-05 01:09:00,16.5,11.1,29.93,NE,45,0.0,0.0,79,0.00,CLR,,0.00,WeatherDisplay:10.37,2013-03-05 06:09:00,
2013-03-05 01:14:00,16.3,11.0,29.93,NE,45,0.0,0.0,79,0.00,CLR,,0.00,WeatherDisplay:10.37,2013-03-05 06:14:00,
2013-03-05 01:19:00,16.2,11.1,29.93,NE,45,0.0,0.0,80,0.00,CLR,,0.00,WeatherDisplay:10.37,2013-03-05 06:19:00,
2013-03-05 01:24:00,16.0,10.9,29.93,NE,45,0.0,0.0,80,0.00,CLR,,0.00,WeatherDisplay:10.37,2013-03-05 06:24:00,
2013-03-05 01:29:00,16.0,10.9,29.93,NE,45,0.0,0.0,80,0.00,CLR,,0.00,WeatherDisplay:10.37,2013-03-05 06:29:00,
2013-03-05 01:34:00,15.6,10.5,29.93,NE,45,0.0,0.0,80,0.00,CLR,,0.00,WeatherDisplay:10.37,2013-03-05 06:34:00,
2013-03-05 01:39:00,15.3,10.2,29.93,NE,45,0.0,0.0,80,0.00,CLR,,0.00,WeatherDisplay:10.37,2013-03-05 06:39:00,
2013-03-05 01:44:00,15.1,10.3,29.93,NE,45,0.0,0.0,81,0.00,CLR,,0.00,WeatherDisplay:10.37,2013-03-05 06:44:00,
2013-03-05 01:49:00,14.9,10.1,29.93,NE,45,0.0,0.0,81,0.00,CLR,,0.00,WeatherDisplay:10.37,2013-03-05 06:49:00,
2013-03-05 01:54:00,14.9,10.1,29.93,NE,45,0.0,0.0,81,0.00,CLR,,0.00,WeatherDisplay:10.37,2013-03-05 06:54:00,
2013-03-05 01:59:00,14.7,9.9,29.93,NE,45,0.0,0.0,81,0.00,CLR,,0.00,WeatherDisplay:10.37,2013-03-05 06:59:00,
2013-03-05 02:04:00,14.4,9.6,29.93,NE,45,0.0,0.0,81,0.00,CLR,,0.00,WeatherDisplay:10.37,2013-03-05 07:04:00,
2013-03-05 02:09:00,14.0,9.2,29.93,NE,45,0.0,0.0,81,0.00,CLR,,0.00,WeatherDisplay:10.37,2013-03-05 07:09:00,
2013-03-05 02:14:00,14.0,9.2,29.93,NE,45,0.0,0.0,81,0.00,CLR,,0.00,WeatherDisplay:10.37,2013-03-05 07:14:00,
2013-03-05 02:19:00,13.6,8.9,29.93,NE,45,0.0,0.0,81,0.00,CLR,,0.00,WeatherDisplay:10.37,2013-03-05 07:19:00,
2013-03-05 02:24:00,13.6,8.9,29.93,NE,45,0.0,0.0,81,0.00,CLR,,0.00,WeatherDisplay:10.37,2013-03-05 07:24:00,
2013-03-05 02:29:00,13.6,8.9,29.93,ESE,112,0.0,0.0,81,0.00,CLR,,0.00,WeatherDisplay:10.37,2013-03-05 07:29:00,
2013-03-05 02:34:00,13.3,8.5,29.93,ESE,112,0.0,0.0,81,0.00,CLR,,0.00,WeatherDisplay:10.37,2013-03-05 07:34:00,
2013-03-05 02:39:00,13.1,8.4,29.92,ESE,112,0.0,0.0,81,0.00,CLR,,0.00,WeatherDisplay:10.37,2013-03-05 07:39:00,
2013-03-05 02:44:00,12.7,8.3,29.92,ESE,112,0.0,0.0,82,0.00,CLR,,0.00,WeatherDisplay:10.37,2013-03-05 07:44:00,
2013-03-05 02:49:00,12.9,8.2,29.93,ESE,112,0.0,0.0,81,0.00,CLR,,0.00,WeatherDisplay:10.37,2013-03-05 07:49:00,
2013-03-05 02:54:00,12.9,8.2,29.93,ESE,112,0.0,0.0,81,0.00,CLR,,0.00,WeatherDisplay:10.37,2013-03-05 07:54:00,
2013-03-05 02:59:00,12.7,8.0,29.93,ESE,112,0.0,0.0,81,0.00,CLR,,0.00,WeatherDisplay:10.37,2013-03-05 07:59:00,
2013-03-05 03:04:00,12.6,7.8,29.92,ESE,112,0.0,0.0,81,0.00,CLR,,0.00,WeatherDisplay:10.37,2013-03-05 08:04:00,
2013-03-05 03:09:00,12.6,7.8,29.92,ESE,112,0.0,1.1,81,0.00,CLR,,0.00,WeatherDisplay:10.37,2013-03-05 08:09:00,
2013-03-05 03:14:00,12.4,7.9,29.92,East,90,0.0,0.0,82,0.00,CLR,,0.00,WeatherDisplay:10.37,2013-03-05 08:14:00,
2013-03-05 03:19:00,12.2,7.8,29.92,East,90,0.0,0.0,82,0.00,CLR,,0.00,WeatherDisplay:10.37,2013-03-05 08:19:00,
2013-03-05 03:24:00,12.0,7.6,29.92,East,90,0.9,1.1,82,0.00,CLR,,0.00,WeatherDisplay:10.37,2013-03-05 08:24:00,
2013-03-05 03:29:00,11.8,7.4,29.92,ESE,112,1.8,2.3,82,0.00,CLR,,0.00,WeatherDisplay:10.37,2013-03-05 08:29:00,
2013-03-05 03:34:00,11.5,7.1,29.92,ESE,112,1.5,2.3,82,0.00,CLR,,0.00,WeatherDisplay:10.37,2013-03-05 08:34:00,
2013-03-05 03:39:00,11.5,7.1,29.92,ESE,112,1.2,1.2,82,0.00,CLR,,0.00,WeatherDisplay:10.37,2013-03-05 08:39:00,
2013-03-05 03:44:00,11.3,6.9,29.92,ESE,112,1.2,1.2,82,0.00,CLR,,0.00,WeatherDisplay:10.37,2013-03-05 08:44:00,
2013-03-05 03:49:00,11.1,6.7,29.92,ESE,112,1.8,2.3,82,0.00,CLR,,0.00,WeatherDisplay:10.37,2013-03-05 08:49:00,
2013-03-05 03:54:00,11.1,6.7,29.92,ESE,112,1.8,2.3,82,0.00,CLR,,0.00,WeatherDisplay:10.37,2013-03-05 08:54:00,
2013-03-05 03:59:00,11.1,7.0,29.92,ESE,112,0.9,1.1,83,0.00,CLR,,0.00,WeatherDisplay:10.37,2013-03-05 08:59:00,
2013-03-05 04:04:00,11.1,7.0,29.92,ESE,112,0.6,1.1,83,0.00,CLR,,0.00,WeatherDisplay:10.37,2013-03-05 09:04:00,
2013-03-05 04:09:00,11.3,7.1,29.92,ESE,112,0.9,1.1,83,0.00,CLR,,0.00,WeatherDisplay:10.37,2013-03-05 09:09:00,
2013-03-05 04:14:00,11.3,7.1,29.92,ESE,112,1.5,2.3,83,0.00,CLR,,0.00,WeatherDisplay:10.37,2013-03-05 09:14:00,
2013-03-05 04:19:00,11.1,7.0,29.92,ESE,112,1.5,2.3,83,0.00,CLR,,0.00,WeatherDisplay:10.37,2013-03-05 09:19:00,
2013-03-05 04:24:00,10.6,6.4,29.92,ESE,112,1.8,2.3,83,0.00,CLR,,0.00,WeatherDisplay:10.37,2013-03-05 09:24:00,
2013-03-05 04:29:00,10.4,6.3,29.92,ESE,112,1.5,1.5,83,0.00,CLR,,0.00,WeatherDisplay:10.37,2013-03-05 09:29:00,
2013-03-05 04:34:00,10.6,6.4,29.92,ESE,112,0.6,1.1,83,0.00,CLR,,0.00,WeatherDisplay:10.37,2013-03-05 09:34:00,
2013-03-05 04:39:00,10.6,6.4,29.92,ESE,112,0.6,2.3,83,0.00,CLR,,0.00,WeatherDisplay:10.37,2013-03-05 09:39:00,
2013-03-05 04:44:00,10.4,6.3,29.93,ESE,112,1.5,2.3,83,0.00,CLR,,0.00,WeatherDisplay:10.37,2013-03-05 09:44:00,
2013-03-05 04:49:00,10.2,6.1,29.93,ESE,112,1.2,2.3,83,0.00,CLR,,0.00,WeatherDisplay:10.37,2013-03-05 09:49:00,
2013-03-05 04:54:00,10.0,5.9,29.93,ESE,112,2.4,2.4,83,0.00,CLR,,0.00,WeatherDisplay:10.37,2013-03-05 09:54:00,
2013-03-05 04:59:00,10.0,5.9,29.93,ESE,112,1.5,2.3,83,0.00,CLR,,0.00,WeatherDisplay:10.37,2013-03-05 09:59:00,
2013-03-05 05:04:00,9.7,5.6,29.93,ESE,112,2.4,2.4,83,0.00,CLR,,0.00,WeatherDisplay:10.37,2013-03-05 10:04:00,
2013-03-05 05:09:00,9.7,5.6,29.93,ESE,112,2.5,2.5,83,0.00,CLR,,0.00,WeatherDisplay:10.37,2013-03-05 10:09:00,
2013-03-05 05:14:00,9.7,5.6,29.93,ESE,112,2.5,2.5,83,0.00,CLR,,0.00,WeatherDisplay:10.37,2013-03-05 10:14:00,
2013-03-05 05:19:00,9.7,5.6,29.93,ESE,112,1.8,2.3,83,0.00,CLR,,0.00,WeatherDisplay:10.37,2013-03-05 10:19:00,
2013-03-05 05:24:00,9.9,6.0,29.92,ESE,112,1.2,1.2,84,0.00,CLR,,0.00,WeatherDisplay:10.37,2013-03-05 10:24:00,
2013-03-05 05:29:00,10.0,6.2,29.93,ESE,112,1.2,1.2,84,0.00,CLR,,0.00,WeatherDisplay:10.37,2013-03-05 10:29:00,
2013-03-05 05:34:00,9.9,5.7,29.93,ESE,112,2.4,2.4,83,0.00,CLR,,0.00,WeatherDisplay:10.37,2013-03-05 10:34:00,
2013-03-05 05:39:00,9.7,5.6,29.93,ESE,112,1.8,2.3,83,0.00,CLR,,0.00,WeatherDisplay:10.37,2013-03-05 10:39:00,
2013-03-05 05:44:00,9.3,5.2,29.93,ESE,112,1.5,2.3,83,0.00,CLR,,0.00,WeatherDisplay:10.37,2013-03-05 10:44:00,
2013-03-05 05:49:00,9.3,5.2,29.93,ESE,112,1.5,2.3,83,0.00,CLR,,0.00,WeatherDisplay:10.37,2013-03-05 10:49:00,
2013-03-05 05:54:00,9.3,5.2,29.93,ESE,112,2.1,2.3,83,0.00,CLR,,0.00,WeatherDisplay:10.37,2013-03-05 10:54:00,
2013-03-05 05:59:00,9.1,5.0,29.93,ESE,112,2.1,2.3,83,0.00,CLR,,0.00,WeatherDisplay:10.37,2013-03-05 10:59:00,
2013-03-05 06:04:00,9.1,5.0,29.93,ESE,112,1.8,2.3,83,0.00,CLR,,0.00,WeatherDisplay:10.37,2013-03-05 11:04:00,
2013-03-05 06:09:00,9.1,5.0,29.93,ESE,112,2.4,2.4,83,0.00,CLR,,0.00,WeatherDisplay:10.37,2013-03-05 11:09:00,
2013-03-05 06:14:00,9.0,4.8,29.93,ESE,112,2.5,2.5,83,0.00,CLR,,0.00,WeatherDisplay:10.37,2013-03-05 11:14:00,
2013-03-05 06:19:00,9.0,4.8,29.93,ESE,112,1.8,2.3,83,0.00,CLR,,0.00,WeatherDisplay:10.37,2013-03-05 11:19:00,
2013-03-05 06:24:00,9.1,5.0,29.93,ESE,112,1.2,2.3,83,0.00,CLR,,0.00,WeatherDisplay:10.37,2013-03-05 11:24:00,
2013-03-05 06:29:00,9.0,4.8,29.93,ESE,112,3.1,3.5,83,0.00,CLR,,0.00,WeatherDisplay:10.37,2013-03-05 11:29:00,
2013-03-05 06:34:00,9.1,5.3,29.93,ESE,112,2.8,3.5,84,0.00,CLR,,0.00,WeatherDisplay:10.37,2013-03-05 11:34:00,
2013-03-05 06:39:00,9.3,5.5,29.92,ESE,112,2.5,2.5,84,0.00,CLR,,0.00,WeatherDisplay:10.37,2013-03-05 11:39:00,
2013-03-05 06:44:00,9.1,5.3,29.93,ESE,112,2.4,2.4,84,0.00,CLR,,0.00,WeatherDisplay:10.37,2013-03-05 11:44:00,
2013-03-05 06:49:00,9.1,5.3,29.92,ESE,112,1.8,2.3,84,0.00,CLR,,0.00,WeatherDisplay:10.37,2013-03-05 11:49:00,
2013-03-05 06:54:00,9.0,5.1,29.92,ESE,112,2.8,3.5,84,0.00,CLR,,0.00,WeatherDisplay:10.37,2013-03-05 11:54:00,
2013-03-05 06:59:00,9.0,5.1,29.93,ESE,112,2.8,2.8,84,0.00,CLR,,0.00,WeatherDisplay:10.37,2013-03-05 11:59:00,
2013-03-05 07:04:00,9.0,5.1,29.92,ESE,112,1.2,2.3,84,0.00,CLR,,0.00,WeatherDisplay:10.37,2013-03-05 12:04:00,
2013-03-05 07:09:00,9.3,5.5,29.93,ESE,112,2.1,2.1,84,0.00,CLR,,0.00,WeatherDisplay:10.37,2013-03-05 12:09:00,
2013-03-05 07:14:00,9.5,5.6,29.93,ESE,112,3.1,3.5,84,0.00,CLR,,0.00,WeatherDisplay:10.37,2013-03-05 12:14:00,
2013-03-05 07:19:00,9.7,6.1,29.93,ESE,112,2.4,2.4,85,0.00,CLR,,0.00,WeatherDisplay:10.37,2013-03-05 12:19:00,
2013-03-05 07:24:00,9.7,5.8,29.93,ESE,112,2.8,3.5,84,0.00,CLR,,0.00,WeatherDisplay:10.37,2013-03-05 12:24:00,
2013-03-05 07:29:00,9.7,5.8,29.93,ESE,112,2.4,2.4,84,0.00,CLR,,0.00,WeatherDisplay:10.37,2013-03-05 12:29:00,
2013-03-05 07:34:00,9.9,6.0,29.92,ESE,112,2.8,2.8,84,0.00,CLR,,0.00,WeatherDisplay:10.37,2013-03-05 12:34:00,
2013-03-05 07:39:00,10.6,7.0,29.92,ESE,112,1.5,2.3,85,0.00,CLR,,0.00,WeatherDisplay:10.37,2013-03-05 12:39:00,
2013-03-05 07:44:00,11.3,7.7,29.92,SE,135,0.6,1.1,85,0.00,CLR,,0.00,WeatherDisplay:10.37,2013-03-05 12:44:00,
2013-03-05 07:49:00,11.7,8.0,29.92,ESE,112,2.4,2.4,85,0.00,CLR,,0.00,WeatherDisplay:10.37,2013-03-05 12:49:00,
2013-03-05 07:54:00,12.2,8.6,29.92,ESE,112,2.4,2.4,85,0.00,CLR,,0.00,WeatherDisplay:10.37,2013-03-05 12:54:00,
2013-03-05 07:59:00,12.9,9.3,29.92,ESE,112,1.5,1.5,85,0.00,CLR,,0.00,WeatherDisplay:10.37,2013-03-05 12:59:00,
2013-03-05 08:04:00,13.6,10.0,29.92,ESE,112,1.2,1.2,85,0.00,CLR,,0.00,WeatherDisplay:10.37,2013-03-05 13:04:00,
2013-03-05 08:09:00,14.2,10.5,29.92,ESE,112,0.6,1.1,85,0.00,CLR,,0.00,WeatherDisplay:10.37,2013-03-05 13:09:00,
2013-03-05 08:14:00,14.9,11.2,29.92,ESE,112,0.0,1.1,85,0.00,CLR,,0.00,WeatherDisplay:10.37,2013-03-05 13:14:00,
2013-03-05 08:19:00,15.4,11.7,29.92,ESE,112,0.0,0.0,85,0.00,CLR,,0.00,WeatherDisplay:10.37,2013-03-05 13:19:00,
2013-03-05 08:24:00,16.2,12.7,29.92,ESE,112,0.0,0.0,86,0.00,CLR,,0.00,WeatherDisplay:10.37,2013-03-05 13:24:00,
2013-03-05 08:29:00,16.9,13.4,29.92,ESE,112,0.0,0.0,86,0.00,CLR,,0.00,WeatherDisplay:10.37,2013-03-05 13:29:00,
2013-03-05 08:34:00,17.6,14.1,29.92,ESE,112,0.0,0.0,86,0.00,CLR,,0.00,WeatherDisplay:10.37,2013-03-05 13:34:00,
2013-03-05 08:39:00,18.3,14.8,29.92,SE,135,1.5,1.5,86,0.00,CLR,,0.00,WeatherDisplay:10.37,2013-03-05 13:39:00,
2013-03-05 08:44:00,19.2,15.7,29.92,SE,135,0.6,1.1,86,0.00,CLR,,0.00,WeatherDisplay:10.37,2013-03-05 13:44:00,
2013-03-05 08:49:00,19.8,16.3,29.92,SE,135,0.6,1.1,86,0.00,CLR,,0.00,WeatherDisplay:10.37,2013-03-05 13:49:00,
2013-03-05 08:54:00,20.5,17.0,29.92,SE,135,0.0,0.0,86,0.00,CLR,,0.00,WeatherDisplay:10.37,2013-03-05 13:54:00,
2013-03-05 08:59:00,21.2,17.4,29.91,NNE,22,0.6,1.1,85,0.00,CLR,,0.00,WeatherDisplay:10.37,2013-03-05 13:59:00,
2013-03-05 09:04:00,21.7,18.2,29.91,NNE,22,0.0,0.0,86,0.00,CLR,,0.00,WeatherDisplay:10.37,2013-03-05 14:04:00,
2013-03-05 09:09:00,22.5,18.6,29.91,East,90,0.0,0.0,85,0.00,CLR,,0.00,WeatherDisplay:10.37,2013-03-05 14:09:00,
2013-03-05 09:14:00,23.0,18.3,29.91,NNW,338,0.0,0.0,82,0.00,CLR,,0.00,WeatherDisplay:10.37,2013-03-05 14:14:00,
2013-03-05 09:19:00,23.4,18.7,29.91,NNW,338,0.0,1.1,82,0.00,CLR,,0.00,WeatherDisplay:10.37,2013-03-05 14:19:00,
2013-03-05 09:24:00,23.7,19.0,29.90,North,0,0.0,0.0,82,0.00,CLR,,0.00,WeatherDisplay:10.37,2013-03-05 14:24:00,
2013-03-05 09:29:00,24.3,19.0,29.90,NNW,338,0.3,1.1,80,0.00,CLR,,0.00,WeatherDisplay:10.37,2013-03-05 14:29:00,
2013-03-05 09:34:00,24.6,19.3,29.90,NNW,338,0.6,1.1,80,0.00,CLR,,0.00,WeatherDisplay:10.37,2013-03-05 14:34:00,
2013-03-05 09:39:00,25.0,18.8,29.90,NNW,338,1.2,1.2,77,0.00,CLR,,0.00,WeatherDisplay:10.37,2013-03-05 14:39:00,
2013-03-05 09:44:00,25.5,19.3,29.90,West,270,1.5,1.5,77,0.00,CLR,,0.00,WeatherDisplay:10.37,2013-03-05 14:44:00,
2013-03-05 09:49:00,25.9,19.0,29.90,West,270,1.5,2.3,75,0.00,CLR,,0.00,WeatherDisplay:10.37,2013-03-05 14:49:00,
2013-03-05 09:54:00,26.2,19.4,29.90,SSE,158,2.4,2.4,75,0.00,CLR,,0.00,WeatherDisplay:10.37,2013-03-05 14:54:00,
2013-03-05 09:59:00,26.8,20.2,29.90,SSE,158,0.9,1.1,76,0.00,CLR,,0.00,WeatherDisplay:10.37,2013-03-05 14:59:00,
2013-03-05 10:04:00,27.3,20.8,29.90,SSE,158,0.9,1.1,76,0.00,CLR,,0.00,WeatherDisplay:10.37,2013-03-05 15:04:00,
2013-03-05 10:09:00,28.0,21.4,29.90,SSE,158,1.2,2.3,76,0.00,CLR,,0.00,WeatherDisplay:10.37,2013-03-05 15:09:00,
2013-03-05 10:14:00,28.4,20.8,29.90,NNW,338,1.5,1.5,73,0.00,CLR,,0.00,WeatherDisplay:10.37,2013-03-05 15:14:00,
2013-03-05 10:19:00,28.9,21.4,29.90,NW,315,0.3,1.1,73,0.00,CLR,,0.00,WeatherDisplay:10.37,2013-03-05 15:19:00,
2013-03-05 10:24:00,29.3,20.0,29.90,NW,315,0.0,1.1,68,0.00,CLR,,0.00,WeatherDisplay:10.37,2013-03-05 15:24:00,
2013-03-05 10:29:00,29.8,20.6,29.90,NNW,338,0.6,1.1,68,0.00,CLR,,0.00,WeatherDisplay:10.37,2013-03-05 15:29:00,
2013-03-05 10:34:00,30.2,19.8,29.89,NNW,338,0.3,2.3,65,0.00,CLR,,0.00,WeatherDisplay:10.37,2013-03-05 15:34:00,
2013-03-05 10:39:00,30.6,19.8,29.89,NW,315,0.3,0.3,64,0.00,CLR,,0.00,WeatherDisplay:10.37,2013-03-05 15:39:00,
2013-03-05 10:44:00,31.1,19.2,29.89,West,270,0.6,1.1,61,0.00,CLR,,0.00,WeatherDisplay:10.37,2013-03-05 15:44:00,
2013-03-05 10:49:00,31.6,18.9,29.88,NW,315,2.4,2.4,59,0.00,CLR,,0.00,WeatherDisplay:10.37,2013-03-05 15:49:00,
2013-03-05 10:54:00,32.0,18.1,29.88,NW,315,1.8,2.3,56,0.00,CLR,,0.00,WeatherDisplay:10.37,2013-03-05 15:54:00,
2013-03-05 10:59:00,32.5,19.4,29.88,NNW,338,0.9,1.1,58,0.00,CLR,,0.00,WeatherDisplay:10.37,2013-03-05 15:59:00,
2013-03-05 11:04:00,33.1,19.9,29.88,WSW,248,3.4,3.5,58,0.00,CLR,,0.00,WeatherDisplay:10.37,2013-03-05 16:04:00,
2013-03-05 11:09:00,33.3,19.2,29.89,NW,315,2.4,2.4,56,0.00,CLR,,0.00,WeatherDisplay:10.37,2013-03-05 16:09:00,
2013-03-05 11:14:00,33.6,19.2,29.89,NW,315,0.9,2.3,55,0.00,CLR,,0.00,WeatherDisplay:10.37,2013-03-05 16:14:00,
2013-03-05 11:19:00,33.8,15.2,29.89,West,270,1.5,3.5,46,0.00,CLR,,0.00,WeatherDisplay:10.37,2013-03-05 16:19:00,
2013-03-05 11:24:00,34.2,17.0,29.89,West,270,0.6,1.1,49,0.00,CLR,,0.00,WeatherDisplay:10.37,2013-03-05 16:24:00,
2013-03-05 11:29:00,34.2,15.0,29.90,WNW,292,3.1,3.5,45,0.00,CLR,,0.00,WeatherDisplay:10.37,2013-03-05 16:29:00,
2013-03-05 11:34:00,34.3,15.7,29.89,WNW,292,2.4,2.4,46,0.00,CLR,,0.00,WeatherDisplay:10.37,2013-03-05 16:34:00,
2013-03-05 11:39:00,35.1,15.8,29.89,NW,315,2.8,2.8,45,0.00,CLR,,0.00,WeatherDisplay:10.37,2013-03-05 16:39:00,
2013-03-05 11:44:00,35.6,16.3,29.88,West,270,2.4,2.4,45,0.00,CLR,,0.00,WeatherDisplay:10.37,2013-03-05 16:44:00,
2013-03-05 11:49:00,35.8,15.4,29.88,NW,315,3.1,3.5,43,0.00,CLR,,0.00,WeatherDisplay:10.37,2013-03-05 16:49:00,
2013-03-05 11:54:00,36.0,13.4,29.88,North,0,1.2,2.3,39,0.00,CLR,,0.00,WeatherDisplay:10.37,2013-03-05 16:54:00,
2013-03-05 11:59:00,36.3,13.7,29.88,West,270,2.1,2.3,39,0.00,CLR,,0.00,WeatherDisplay:10.37,2013-03-05 16:59:00,
2013-03-05 12:04:00,36.5,12.7,29.88,WNW,292,0.6,2.3,37,0.00,CLR,,0.00,WeatherDisplay:10.37,2013-03-05 17:04:00,
2013-03-05 12:09:00,36.7,12.8,29.88,NW,315,2.4,2.4,37,0.00,CLR,,0.00,WeatherDisplay:10.37,2013-03-05 17:09:00,
2013-03-05 12:14:00,37.4,12.8,29.88,West,270,1.5,1.5,36,0.01,RA,,0.01,WeatherDisplay:10.37,2013-03-05 17:14:00,
2013-03-05 12:19:00,37.4,14.1,29.88,WSW,248,2.5,2.5,38,0.01,RA,,0.01,WeatherDisplay:10.37,2013-03-05 17:19:00,
2013-03-05 12:24:00,37.4,12.2,29.87,NW,315,1.8,2.3,35,0.01,,,0.01,WeatherDisplay:10.37,2013-03-05 17:24:00,
2013-03-05 12:29:00,37.8,11.2,29.87,West,270,2.4,2.4,33,0.01,CLR,,0.01,WeatherDisplay:10.37,2013-03-05 17:29:00,
2013-03-05 12:34:00,38.1,11.5,29.87,NNW,338,1.2,1.2,33,0.01,CLR,,0.01,WeatherDisplay:10.37,2013-03-05 17:34:00,
2013-03-05 12:39:00,38.5,11.1,29.87,NNW,338,1.2,2.3,32,0.02,RA,,0.02,WeatherDisplay:10.37,2013-03-05 17:39:00,
2013-03-05 12:44:00,39.0,10.2,29.86,NNW,338,0.9,2.3,30,0.02,RA,,0.02,WeatherDisplay:10.37,2013-03-05 17:44:00,
2013-03-05 12:49:00,39.2,12.5,29.86,NE,45,0.6,1.1,33,0.02,CLR,,0.02,WeatherDisplay:10.37,2013-03-05 17:49:00,
2013-03-05 12:54:00,39.6,10.6,29.85,NNW,338,1.8,2.3,30,0.03,RA,,0.03,WeatherDisplay:10.37,2013-03-05 17:54:00,
2013-03-05 12:59:00,39.7,12.2,29.85,North,0,0.6,1.1,32,0.03,RA,,0.03,WeatherDisplay:10.37,2013-03-05 17:59:00,
2013-03-05 13:04:00,40.5,14.9,29.84,West,270,1.2,1.2,35,0.04,RA,,0.04,WeatherDisplay:10.37,2013-03-05 18:04:00,
2013-03-05 13:09:00,41.4,17.6,29.84,South,180,1.5,1.5,38,0.04,RA,,0.04,WeatherDisplay:10.37,2013-03-05 18:09:00,
2013-03-05 13:14:00,41.9,18.7,29.83,SSE,158,1.5,2.3,39,0.04,RA,,0.05,WeatherDisplay:10.37,2013-03-05 18:14:00,
2013-03-05 13:19:00,42.3,19.0,29.83,ESE,112,2.1,2.3,39,0.04,RA,,0.05,WeatherDisplay:10.37,2013-03-05 18:19:00,
2013-03-05 13:24:00,42.6,19.4,29.83,NNW,338,1.5,1.5,39,0.05,RA,,0.06,WeatherDisplay:10.37,2013-03-05 18:24:00,
2013-03-05 13:29:00,42.8,21.8,29.82,SSE,158,2.1,2.3,43,0.05,RA,,0.06,WeatherDisplay:10.37,2013-03-05 18:29:00,
2013-03-05 13:34:00,43.9,23.4,29.82,SE,135,4.0,4.6,44,0.06,RA,,0.07,WeatherDisplay:10.37,2013-03-05 18:34:00,
2013-03-05 13:39:00,44.6,23.5,29.82,ESE,112,4.0,4.6,43,0.05,RA,,0.07,WeatherDisplay:10.37,2013-03-05 18:39:00,
2013-03-05 13:44:00,45.3,25.2,29.82,SE,135,1.5,4.6,45,0.06,RA,,0.08,WeatherDisplay:10.37,2013-03-05 18:44:00,
2013-03-05 13:49:00,46.4,26.2,29.82,East,90,2.4,2.4,45,0.06,RA,,0.08,WeatherDisplay:10.37,2013-03-05 18:49:00,
2013-03-05 13:54:00,46.0,24.8,29.81,SSE,158,6.1,8.1,43,0.05,CLR,,0.08,WeatherDisplay:10.37,2013-03-05 18:54:00,
2013-03-05 13:59:00,45.9,25.2,29.81,ENE,68,3.1,3.5,44,0.06,RA,,0.09,WeatherDisplay:10.37,2013-03-05 18:59:00,
2013-03-05 14:04:00,46.4,25.6,29.81,SE,135,4.3,4.3,44,0.05,RA,,0.09,WeatherDisplay:10.37,2013-03-05 19:04:00,
2013-03-05 14:10:00,46.6,25.3,29.80,ESE,112,4.3,5.8,43,0.05,CLR,,0.09,WeatherDisplay:10.37,2013-03-05 19:10:00,
2013-03-05 14:15:00,46.6,24.1,29.80,SE,135,8.4,8.4,41,0.05,RA,,0.10,WeatherDisplay:10.37,2013-03-05 19:15:00,
2013-03-05 14:20:00,46.2,25.5,29.80,SSE,158,5.5,5.8,44,0.05,RA,,0.10,WeatherDisplay:10.37,2013-03-05 19:20:00,
2013-03-05 14:25:00,45.9,24.0,29.80,ESE,112,4.3,4.6,42,0.04,,,0.10,WeatherDisplay:10.37,2013-03-05 19:25:00,
2013-03-05 14:30:00,45.9,23.5,29.79,East,90,2.4,4.6,41,0.04,CLR,,0.10,WeatherDisplay:10.37,2013-03-05 19:30:00,
2013-03-05 14:35:00,45.7,23.9,29.79,ESE,112,2.8,2.8,42,0.03,CLR,,0.10,WeatherDisplay:10.37,2013-03-05 19:35:00,
2013-03-05 14:40:00,45.5,23.7,29.79,SE,135,4.6,4.6,42,0.03,CLR,,0.10,WeatherDisplay:10.37,2013-03-05 19:40:00,
2013-03-05 14:45:00,45.9,23.5,29.79,SE,135,3.4,4.6,41,0.02,CLR,,0.10,WeatherDisplay:10.37,2013-03-05 19:45:00,
2013-03-05 14:50:00,45.5,22.5,29.78,SSE,158,5.8,9.2,40,0.03,RA,,0.11,WeatherDisplay:10.37,2013-03-05 19:50:00,
2013-03-05 14:55:00,45.1,22.2,29.78,SE,135,7.0,7.0,40,0.03,RA,,0.11,WeatherDisplay:10.37,2013-03-05 19:55:00,
2013-03-05 15:00:00,45.5,22.5,29.78,SE,135,3.1,3.5,40,0.02,CLR,,0.11,WeatherDisplay:10.37,2013-03-05 20:00:00,
2013-03-05 15:05:00,45.7,22.1,29.78,SE,135,4.6,4.6,39,0.02,CLR,,0.11,WeatherDisplay:10.37,2013-03-05 20:05:00,
2013-03-05 15:10:00,45.7,21.5,29.78,SE,135,7.0,8.1,38,0.02,CLR,,0.11,WeatherDisplay:10.37,2013-03-05 20:10:00,
2013-03-05 15:15:00,45.7,20.9,29.77,SE,135,4.6,6.9,37,0.01,CLR,,0.11,WeatherDisplay:10.37,2013-03-05 20:15:00,
2013-03-05 15:20:00,45.7,21.5,29.77,ESE,112,6.1,6.1,38,0.01,CLR,,0.11,WeatherDisplay:10.37,2013-03-05 20:20:00,
2013-03-05 15:25:00,46.2,22.0,29.77,ESE,112,5.2,5.8,38,0.02,RA,,0.12,WeatherDisplay:10.37,2013-03-05 20:25:00,
2013-03-05 15:30:00,46.2,22.0,29.77,East,90,5.8,5.8,38,0.02,RA,,0.12,WeatherDisplay:10.37,2013-03-05 20:30:00,
2013-03-05 15:35:00,45.9,20.4,29.77,East,90,6.7,6.9,36,0.02,,,0.12,WeatherDisplay:10.37,2013-03-05 20:35:00,
2013-03-05 15:40:00,45.3,19.9,29.77,East,90,5.8,6.9,36,0.02,CLR,,0.12,WeatherDisplay:10.37,2013-03-05 20:40:00,
2013-03-05 15:45:00,45.0,20.2,29.76,ENE,68,4.6,4.6,37,0.03,RA,,0.13,WeatherDisplay:10.37,2013-03-05 20:45:00,
2013-03-05 15:50:00,45.5,19.4,29.77,SE,135,2.4,2.4,35,0.02,RA,,0.13,WeatherDisplay:10.37,2013-03-05 20:50:00,
2013-03-05 15:56:00,47.1,22.8,29.77,ESE,112,3.1,5.8,38,0.02,,,0.13,WeatherDisplay:10.37,2013-03-05 20:56:00,
2013-03-05 16:01:00,46.9,20.0,29.76,ESE,112,4.6,6.9,34,0.02,CLR,,0.13,WeatherDisplay:10.37,2013-03-05 21:01:00,
2013-03-05 16:06:00,46.8,20.5,29.76,SSE,158,4.6,4.6,35,0.02,CLR,,0.13,WeatherDisplay:10.37,2013-03-05 21:06:00,
2013-03-05 16:11:00,45.7,18.9,29.75,SE,135,7.6,8.1,34,0.02,CLR,,0.13,WeatherDisplay:10.37,2013-03-05 21:11:00,
2013-03-05 16:16:00,44.8,20.1,29.75,ESE,112,2.8,3.5,37,0.02,CLR,,0.13,WeatherDisplay:10.37,2013-03-05 21:16:00,
2013-03-05 16:21:00,45.3,18.6,29.75,SE,135,7.3,10.4,34,0.02,CLR,,0.13,WeatherDisplay:10.37,2013-03-05 21:21:00,
2013-03-05 16:26:00,45.1,19.1,29.75,SE,135,4.6,5.8,35,0.01,CLR,,0.13,WeatherDisplay:10.37,2013-03-05 21:26:00,
2013-03-05 16:31:00,45.0,17.5,29.75,SE,135,8.7,11.5,33,0.01,CLR,,0.13,WeatherDisplay:10.37,2013-03-05 21:31:00,
2013-03-05 16:36:00,43.9,18.0,29.75,ESE,112,4.9,10.4,35,0.02,RA,,0.14,WeatherDisplay:10.37,2013-03-05 21:36:00,
2013-03-05 16:41:00,43.5,18.3,29.75,East,90,7.3,7.3,36,0.02,RA,,0.14,WeatherDisplay:10.37,2013-03-05 21:41:00,
2013-03-05 16:46:00,43.7,18.5,29.74,East,90,4.3,5.8,36,0.01,CLR,,0.14,WeatherDisplay:10.37,2013-03-05 21:46:00,
2013-03-05 16:51:00,45.0,19.6,29.75,ESE,112,4.9,4.9,36,0.01,CLR,,0.14,WeatherDisplay:10.37,2013-03-05 21:51:00,
2013-03-05 16:56:00,46.2,21.3,29.74,East,90,4.6,4.6,37,0.01,CLR,,0.14,WeatherDisplay:10.37,2013-03-05 21:56:00,
2013-03-05 17:01:00,46.0,19.9,29.74,SE,135,10.5,10.5,35,0.01,CLR,,0.14,WeatherDisplay:10.37,2013-03-05 22:01:00,
2013-03-05 17:06:00,45.1,19.7,29.74,ESE,112,2.4,6.9,36,0.01,CLR,,0.14,WeatherDisplay:10.37,2013-03-05 22:06:00,
2013-03-05 17:11:00,45.0,19.6,29.74,SE,135,7.0,7.0,36,0.01,CLR,,0.14,WeatherDisplay:10.37,2013-03-05 22:11:00,
2013-03-05 17:16:00,43.9,18.0,29.74,SSE,158,7.3,7.3,35,0.01,CLR,,0.14,WeatherDisplay:10.37,2013-03-05 22:16:00,
2013-03-05 17:21:00,42.8,18.9,29.74,SE,135,2.4,3.5,38,0.01,CLR,,0.14,WeatherDisplay:10.37,2013-03-05 22:21:00,
2013-03-05 17:26:00,41.9,18.1,29.74,SE,135,7.0,7.0,38,0.01,CLR,,0.14,WeatherDisplay:10.37,2013-03-05 22:26:00,
2013-03-05 17:31:00,41.0,17.3,29.74,ESE,112,6.1,6.1,38,0.01,CLR,,0.14,WeatherDisplay:10.37,2013-03-05 22:31:00,
2013-03-05 17:36:00,40.1,17.1,29.73,ESE,112,2.8,4.6,39,0.00,CLR,,0.14,WeatherDisplay:10.37,2013-03-05 22:36:00,
2013-03-05 17:41:00,39.2,16.9,29.72,ESE,112,2.1,6.9,40,0.00,CLR,,0.14,WeatherDisplay:10.37,2013-03-05 22:41:00,
2013-03-05 17:46:00,38.7,17.5,29.71,East,90,5.8,5.8,42,0.00,CLR,,0.14,WeatherDisplay:10.37,2013-03-05 22:46:00,
2013-03-05 17:51:00,38.3,17.7,29.70,SE,135,4.3,4.6,43,0.00,CLR,,0.14,WeatherDisplay:10.37,2013-03-05 22:51:00,
2013-03-05 17:56:00,37.8,18.3,29.70,ENE,68,5.2,5.8,45,0.00,CLR,,0.14,WeatherDisplay:10.37,2013-03-05 22:56:00,
2013-03-05 18:01:00,37.2,17.8,29.70,ESE,112,6.1,6.1,45,0.00,CLR,,0.14,WeatherDisplay:10.37,2013-03-05 23:01:00,
2013-03-05 18:06:00,37.0,18.1,29.70,ENE,68,5.2,5.8,46,0.00,CLR,,0.14,WeatherDisplay:10.37,2013-03-05 23:06:00,
2013-03-05 18:11:00,36.7,18.8,29.70,ESE,112,5.5,5.8,48,0.00,CLR,,0.14,WeatherDisplay:10.37,2013-03-05 23:11:00,
2013-03-05 18:16:00,36.3,19.0,29.70,ENE,68,3.1,3.5,49,0.00,CLR,,0.14,WeatherDisplay:10.37,2013-03-05 23:16:00,
2013-03-05 18:21:00,36.0,19.1,29.70,ESE,112,4.3,5.8,50,0.00,CLR,,0.14,WeatherDisplay:10.37,2013-03-05 23:21:00,
2013-03-05 18:26:00,35.6,19.2,29.69,ESE,112,7.8,9.2,51,0.00,CLR,,0.14,WeatherDisplay:10.37,2013-03-05 23:26:00,
2013-03-05 18:31:00,35.4,19.5,29.69,SE,135,9.6,9.6,52,0.00,CLR,,0.14,WeatherDisplay:10.37,2013-03-05 23:31:00,
2013-03-05 18:36:00,35.2,19.8,29.69,ESE,112,8.7,9.2,53,0.00,CLR,,0.14,WeatherDisplay:10.37,2013-03-05 23:36:00,
2013-03-05 18:41:00,35.1,19.6,29.69,East,90,6.1,6.9,53,0.00,CLR,,0.14,WeatherDisplay:10.37,2013-03-05 23:41:00,
2013-03-05 18:46:00,34.9,19.5,29.69,ESE,112,9.0,10.4,53,0.00,CLR,,0.14,WeatherDisplay:10.37,2013-03-05 23:46:00,
2013-03-05 18:51:00,34.9,19.5,29.69,ESE,112,5.8,8.1,53,0.00,CLR,,0.14,WeatherDisplay:10.37,2013-03-05 23:51:00,
2013-03-05 18:56:00,34.7,19.3,29.69,SSE,158,12.9,12.9,53,0.00,CLR,,0.14,WeatherDisplay:10.37,2013-03-05 23:56:00,
2013-03-05 19:01:00,34.7,19.3,29.69,SE,135,11.1,11.5,53,0.00,CLR,,0.14,WeatherDisplay:10.37,2013-03-06 00:01:00,
2013-03-05 19:06:00,34.5,19.1,29.70,SE,135,10.8,11.5,53,0.00,CLR,,0.14,WeatherDisplay:10.37,2013-03-06 00:06:00,
2013-03-05 19:11:00,34.3,19.4,29.69,SE,135,7.8,8.1,54,0.00,CLR,,0.14,WeatherDisplay:10.37,2013-03-06 00:11:00,
2013-03-05 19:16:00,34.2,19.2,29.69,SE,135,9.3,9.3,54,0.00,CLR,,0.14,WeatherDisplay:10.37,2013-03-06 00:16:00,
2013-03-05 19:21:00,34.2,19.7,29.69,East,90,9.3,9.3,55,0.00,CLR,,0.14,WeatherDisplay:10.37,2013-03-06 00:21:00,
2013-03-05 19:26:00,34.2,19.7,29.69,SE,135,3.4,4.6,55,0.00,CLR,,0.14,WeatherDisplay:10.37,2013-03-06 00:26:00,
2013-03-05 19:31:00,34.0,19.9,29.69,ESE,112,8.1,8.1,56,0.00,CLR,,0.14,WeatherDisplay:10.37,2013-03-06 00:31:00,
2013-03-05 19:36:00,34.0,19.9,29.69,SE,135,4.9,4.9,56,0.00,CLR,,0.14,WeatherDisplay:10.37,2013-03-06 00:36:00,
2013-03-05 19:41:00,33.8,19.7,29.68,SE,135,7.6,8.1,56,0.00,CLR,,0.14,WeatherDisplay:10.37,2013-03-06 00:41:00,
2013-03-05 19:46:00,33.8,20.2,29.68,SSE,158,5.8,6.9,57,0.00,CLR,,0.14,WeatherDisplay:10.37,2013-03-06 00:46:00,
2013-03-05 19:51:00,33.6,20.4,29.68,ESE,112,3.1,3.5,58,0.00,CLR,,0.14,WeatherDisplay:10.37,2013-03-06 00:51:00,
2013-03-05 19:56:00,33.4,20.6,29.68,East,90,3.1,3.5,59,0.00,CLR,,0.14,WeatherDisplay:10.37,2013-03-06 00:56:00,
2013-03-05 20:01:00,33.4,21.4,29.68,ESE,112,9.0,9.2,61,0.00,CLR,,0.14,WeatherDisplay:10.37,2013-03-06 01:01:00,
2013-03-05 20:06:00,33.3,21.3,29.68,ESE,112,7.0,7.0,61,0.00,CLR,,0.14,WeatherDisplay:10.37,2013-03-06 01:06:00,
2013-03-05 20:11:00,33.3,21.3,29.68,ESE,112,6.1,8.1,61,0.00,CLR,,0.14,WeatherDisplay:10.37,2013-03-06 01:11:00,
2013-03-05 20:16:00,33.1,21.5,29.68,SE,135,3.4,4.6,62,0.00,CLR,,0.14,WeatherDisplay:10.37,2013-03-06 01:16:00,
2013-03-05 20:21:00,33.1,21.5,29.68,ESE,112,5.2,10.4,62,0.00,CLR,,0.14,WeatherDisplay:10.37,2013-03-06 01:21:00,
2013-03-05 20:26:00,32.9,21.7,29.68,ESE,112,4.9,4.9,63,0.00,CLR,,0.14,WeatherDisplay:10.37,2013-03-06 01:26:00,
2013-03-05 20:31:00,32.9,22.0,29.68,ESE,112,6.7,6.7,64,0.00,CLR,,0.14,WeatherDisplay:10.37,2013-03-06 01:31:00,
2013-03-05 20:36:00,32.7,21.9,29.68,ESE,112,3.7,4.6,64,0.00,CLR,,0.14,WeatherDisplay:10.37,2013-03-06 01:36:00,
2013-03-05 20:41:00,32.7,22.6,29.67,NW,315,4.0,4.6,66,0.00,CLR,,0.14,WeatherDisplay:10.37,2013-03-06 01:41:00,
2013-03-05 20:46:00,32.7,23.0,29.67,ESE,112,7.6,9.2,67,0.00,CLR,,0.14,WeatherDisplay:10.37,2013-03-06 01:46:00,
2013-03-05 20:51:00,32.5,22.8,29.67,East,90,10.5,10.5,67,0.00,CLR,,0.14,WeatherDisplay:10.37,2013-03-06 01:51:00,
2013-03-05 20:56:00,32.4,22.6,29.66,SSE,158,6.4,6.9,67,0.00,CLR,,0.14,WeatherDisplay:10.37,2013-03-06 01:56:00,
2013-03-05 21:01:00,32.4,23.0,29.66,SE,135,7.0,11.5,68,0.00,CLR,,0.14,WeatherDisplay:10.37,2013-03-06 02:01:00,
2013-03-05 21:06:00,32.4,23.3,29.66,ESE,112,10.2,10.4,69,0.00,CLR,,0.14,WeatherDisplay:10.37,2013-03-06 02:06:00,
2013-03-05 21:11:00,32.4,23.0,29.66,ESE,112,6.1,6.9,68,0.00,CLR,,0.14,WeatherDisplay:10.37,2013-03-06 02:11:00,
2013-03-05 21:16:00,32.2,22.8,29.66,ENE,68,7.0,7.0,68,0.00,CLR,,0.14,WeatherDisplay:10.37,2013-03-06 02:16:00,
2013-03-05 21:21:00,32.2,23.5,29.66,ENE,68,10.2,10.2,70,0.00,CLR,,0.14,WeatherDisplay:10.37,2013-03-06 02:21:00,
2013-03-05 21:26:00,32.0,23.3,29.66,East,90,8.1,8.1,70,0.00,CLR,,0.14,WeatherDisplay:10.37,2013-03-06 02:26:00,
2013-03-05 21:31:00,32.0,23.0,29.65,ESE,112,8.1,13.8,69,0.00,CLR,,0.14,WeatherDisplay:10.37,2013-03-06 02:31:00,
2013-03-05 21:36:00,32.0,23.0,29.65,ESE,112,5.5,5.8,69,0.00,CLR,,0.14,WeatherDisplay:10.37,2013-03-06 02:36:00,
2013-03-05 21:41:00,32.0,23.0,29.65,SE,135,9.9,9.9,69,0.00,CLR,,0.14,WeatherDisplay:10.37,2013-03-06 02:41:00,
2013-03-05 21:46:00,32.0,23.3,29.65,East,90,12.0,12.0,70,0.00,CLR,,0.14,WeatherDisplay:10.37,2013-03-06 02:46:00,
2013-03-05 21:51:00,32.0,23.3,29.64,SE,135,8.7,9.2,70,0.00,CLR,,0.14,WeatherDisplay:10.37,2013-03-06 02:51:00,
2013-03-05 21:56:00,32.0,23.3,29.64,SE,135,7.0,7.0,70,0.00,CLR,,0.14,WeatherDisplay:10.37,2013-03-06 02:56:00,
2013-03-05 22:01:00,31.8,23.1,29.64,SE,135,4.3,8.1,70,0.00,CLR,,0.14,WeatherDisplay:10.37,2013-03-06 03:01:00,
2013-03-05 22:06:00,32.0,23.3,29.64,SW,225,6.1,6.9,70,0.00,CLR,,0.14,WeatherDisplay:10.37,2013-03-06 03:06:00,
2013-03-05 22:11:00,31.8,23.1,29.64,SE,135,15.7,16.1,70,0.00,CLR,,0.14,WeatherDisplay:10.37,2013-03-06 03:11:00,
2013-03-05 22:16:00,32.0,23.3,29.64,SE,135,12.9,12.9,70,0.00,CLR,,0.14,WeatherDisplay:10.37,2013-03-06 03:16:00,
2013-03-05 22:21:00,32.0,23.3,29.64,ESE,112,8.1,9.2,70,0.00,CLR,,0.14,WeatherDisplay:10.37,2013-03-06 03:21:00,
2013-03-05 22:26:00,32.0,23.3,29.64,ENE,68,9.9,11.5,70,0.00,CLR,,0.14,WeatherDisplay:10.37,2013-03-06 03:26:00,
2013-03-05 22:31:00,32.0,23.7,29.63,SSW,202,16.6,16.6,71,0.00,CLR,,0.14,WeatherDisplay:10.37,2013-03-06 03:31:00,
2013-03-05 22:36:00,32.0,23.7,29.63,SSW,202,14.5,15.0,71,0.00,CLR,,0.14,WeatherDisplay:10.37,2013-03-06 03:36:00,
2013-03-05 22:41:00,32.0,24.0,29.63,ESE,112,12.0,15.0,72,0.00,CLR,,0.14,WeatherDisplay:10.37,2013-03-06 03:41:00,
2013-03-05 22:46:00,32.0,24.0,29.63,SE,135,10.5,10.5,72,0.00,CLR,,0.14,WeatherDisplay:10.37,2013-03-06 03:46:00,
2013-03-05 22:51:00,32.0,24.0,29.63,SE,135,14.8,15.0,72,0.00,CLR,,0.14,WeatherDisplay:10.37,2013-03-06 03:51:00,
2013-03-05 22:56:00,32.0,24.3,29.62,SE,135,11.1,11.5,73,0.00,CLR,,0.14,WeatherDisplay:10.37,2013-03-06 03:56:00,
2013-03-05 23:01:00,32.0,24.3,29.62,ESE,112,9.0,13.8,73,0.00,CLR,,0.14,WeatherDisplay:10.37,2013-03-06 04:01:00,
2013-03-05 23:06:00,32.0,24.3,29.62,ESE,112,15.7,17.3,73,0.00,CLR,,0.14,WeatherDisplay:10.37,2013-03-06 04:06:00,
2013-03-05 23:11:00,32.0,24.3,29.62,SE,135,7.6,16.1,73,0.00,CLR,,0.14,WeatherDisplay:10.37,2013-03-06 04:11:00,
2013-03-05 23:16:00,32.0,24.6,29.61,ESE,112,12.3,18.4,74,0.00,CLR,,0.14,WeatherDisplay:10.37,2013-03-06 04:16:00,
2013-03-05 23:21:00,31.8,24.5,29.61,SE,135,13.6,13.8,74,0.00,CLR,,0.14,WeatherDisplay:10.37,2013-03-06 04:21:00,
2013-03-05 23:26:00,32.0,24.6,29.61,SSE,158,11.7,12.7,74,0.00,CLR,,0.14,WeatherDisplay:10.37,2013-03-06 04:26:00,
2013-03-05 23:31:00,32.0,24.6,29.61,SE,135,11.7,16.1,74,0.00,CLR,,0.14,WeatherDisplay:10.37,2013-03-06 04:31:00,
2013-03-05 23:36:00,32.0,24.6,29.61,ESE,112,8.1,11.5,74,0.00,CLR,,0.14,WeatherDisplay:10.37,2013-03-06 04:36:00,
2013-03-05 23:41:00,31.8,24.8,29.61,SE,135,13.3,13.3,75,0.00,CLR,,0.14,WeatherDisplay:10.37,2013-03-06 04:41:00,
2013-03-05 23:46:00,31.8,24.5,29.61,ESE,112,12.0,12.0,74,0.00,CLR,,0.14,WeatherDisplay:10.37,2013-03-06 04:46:00,
2013-03-05 23:51:00,32.0,24.6,29.60,SE,135,8.7,11.5,74,0.00,CLR,,0.14,WeatherDisplay:10.37,2013-03-06 04:51:00,
2013-03-05 23:56:00,32.0,25.0,29.60,SSE,158,15.1,15.1,75,0.00,CLR,,0.14,WeatherDisplay:10.37,2013-03-06 04:56:00,